When you browse on this site, cookies collect data to enhance your experience and personalize the content and advertising you see.
Visit our Privacy Policy to learn more. By continuing to use the site, you agree to this use of cookies and data.

Meteo pe oră la Nha Trang

Astăzi, 11 August, Marţi

Timp Temperatura Precipitaţii Vânt Presiune Umiditate
00:00 +28°C° 0 mm 2 m/s 745 mmHg 79%
01:00 +27°C° 0 mm 2 m/s 745 mmHg 77%
02:00 +27°C° 0 mm 2 m/s 745 mmHg 77%
03:00 +27°C° 0 mm 2 m/s 745 mmHg 76%
04:00 +27°C° 0 mm 2 m/s 744 mmHg 76%
05:00 +27°C° 0 mm 2 m/s 745 mmHg 75%
06:00 +28°C° 0 mm 1 m/s 745 mmHg 74%
07:00 +29°C° 0 mm 1 m/s 745 mmHg 74%
08:00 +31°C° 0 mm 1 m/s 745 mmHg 68%
09:00 +32°C° 0 mm 1 m/s 745 mmHg 62%
10:00 +34°C° 0 mm 1 m/s 746 mmHg 56%
11:00 +34°C° 0.2 mm 1 m/s 745 mmHg 59%
12:00 +34°C° 0.2 mm 2 m/s 744 mmHg 63%
13:00 +34°C° 0.2 mm 2 m/s 744 mmHg 66%
14:00 +32°C° 1.7 mm 2 m/s 744 mmHg 71%
15:00 +32°C° 1.7 mm 2 m/s 743 mmHg 76%
16:00 +31°C° 1.7 mm 2 m/s 743 mmHg 82%
17:00 +30°C° 2 mm 2 m/s 744 mmHg 84%
18:00 +29°C° 2 mm 2 m/s 744 mmHg 87%
19:00 +28°C° 2 mm 2 m/s 745 mmHg 90%
20:00 +28°C° 0 mm 2 m/s 745 mmHg 90%
21:00 +28°C° 0 mm 2 m/s 746 mmHg 90%
22:00 +28°C° 0 mm 1 m/s 746 mmHg 89%
23:00 +28°C° 0.1 mm 1 m/s 746 mmHg 89%

Mâine, 12 August, Miercuri

Timp Temperatura Precipitaţii Vânt Presiune Umiditate
00:00 +28°C° 0.1 mm 1 m/s 746 mmHg 89%
01:00 +28°C° 0.1 mm 1 m/s 746 mmHg 89%
02:00 +27°C° 0.1 mm 1 m/s 746 mmHg 89%
03:00 +27°C° 0.1 mm 1 m/s 745 mmHg 88%
04:00 +27°C° 0.1 mm 2 m/s 745 mmHg 88%
05:00 +27°C° 0.1 mm 1 m/s 746 mmHg 86%
06:00 +28°C° 0.1 mm 1 m/s 746 mmHg 85%
07:00 +28°C° 0.1 mm 1 m/s 746 mmHg 83%
08:00 +30°C° 0 mm 1 m/s 747 mmHg 77%
09:00 +31°C° 0 mm 1 m/s 747 mmHg 71%
10:00 +32°C° 0 mm 1 m/s 747 mmHg 65%
11:00 +32°C° 0.8 mm 1 m/s 747 mmHg 67%
12:00 +32°C° 0.8 mm 1 m/s 746 mmHg 69%
13:00 +32°C° 0.8 mm 2 m/s 746 mmHg 71%
14:00 +31°C° 0.9 mm 1 m/s 745 mmHg 76%
15:00 +30°C° 0.9 mm 1 m/s 745 mmHg 81%
16:00 +30°C° 0.9 mm 1 m/s 745 mmHg 86%
17:00 +29°C° 0.1 mm 1 m/s 745 mmHg 87%
18:00 +29°C° 0.1 mm 2 m/s 746 mmHg 88%
19:00 +28°C° 0.1 mm 2 m/s 746 mmHg 89%
20:00 +28°C° 0 mm 2 m/s 747 mmHg 88%
21:00 +28°C° 0 mm 2 m/s 747 mmHg 88%
22:00 +28°C° 0 mm 1 m/s 748 mmHg 87%
23:00 +28°C° 0 mm 1 m/s 747 mmHg 87%

Poimâine, 13 August, Joi

Timp Temperatura Precipitaţii Vânt Presiune Umiditate
00:00 +27°C° 0 mm 1 m/s 747 mmHg 88%
01:00 +27°C° 0 mm 1 m/s 747 mmHg 88%
02:00 +27°C° 0 mm 1 m/s 746 mmHg 88%
03:00 +27°C° 0 mm 1 m/s 746 mmHg 88%
04:00 +27°C° 0 mm 1 m/s 746 mmHg 87%
05:00 +27°C° 0.4 mm 1 m/s 746 mmHg 87%
06:00 +27°C° 0.4 mm 1 m/s 746 mmHg 87%
07:00 +27°C° 0.4 mm 1 m/s 747 mmHg 87%
08:00 +29°C° 0.2 mm 1 m/s 747 mmHg 83%
09:00 +30°C° 0.2 mm 1 m/s 747 mmHg 78%
10:00 +29°C° 0.2 mm 0 m/s 747 mmHg 73%
11:00 +31°C° 0.7 mm 1 m/s 747 mmHg 76%
12:00 +30°C° 0.7 mm 1 m/s 746 mmHg 78%
13:00 +30°C° 0.7 mm 1 m/s 746 mmHg 81%
14:00 +30°C° 1 mm 1 m/s 745 mmHg 81%
15:00 +30°C° 1 mm 1 m/s 745 mmHg 82%
16:00 +30°C° 1 mm 1 m/s 744 mmHg 82%
17:00 +29°C° 0.3 mm 1 m/s 745 mmHg 85%
18:00 +29°C° 0.3 mm 1 m/s 745 mmHg 87%
19:00 +28°C° 0.3 mm 1 m/s 746 mmHg 89%
20:00 +28°C° 0 mm 2 m/s 746 mmHg 89%
21:00 +28°C° 0 mm 2 m/s 747 mmHg 89%
22:00 +27°C° 0 mm 2 m/s 747 mmHg 89%
23:00 +27°C° 0 mm 2 m/s 747 mmHg 89%

14 August, Vineri

Timp Temperatura Precipitaţii Vânt Presiune Umiditate
00:00 +27°C° 0 mm 2 m/s 747 mmHg 89%
01:00 +27°C° 0 mm 2 m/s 746 mmHg 89%
02:00 +27°C° 0 mm 1 m/s 746 mmHg 88%
03:00 +26°C° 0 mm 1 m/s 746 mmHg 88%
04:00 +26°C° 0 mm 1 m/s 745 mmHg 87%
05:00 +27°C° 0 mm 1 m/s 746 mmHg 85%
06:00 +27°C° 0 mm 1 m/s 746 mmHg 84%
07:00 +28°C° 0 mm 1 m/s 747 mmHg 82%
08:00 +29°C° 0 mm 1 m/s 747 mmHg 76%
09:00 +31°C° 0 mm 1 m/s 747 mmHg 69%
10:00 +30°C° 0 mm 0 m/s 747 mmHg 63%
11:00 +32°C° 0.2 mm 1 m/s 747 mmHg 63%
12:00 +34°C° 0.2 mm 2 m/s 746 mmHg 63%
13:00 +34°C° 0.2 mm 2 m/s 745 mmHg 64%
14:00 +32°C° 0.6 mm 2 m/s 745 mmHg 69%
15:00 +32°C° 0.6 mm 2 m/s 744 mmHg 74%
16:00 +31°C° 0.6 mm 3 m/s 744 mmHg 79%
17:00 +30°C° 1 mm 3 m/s 744 mmHg 82%
18:00 +29°C° 1 mm 2 m/s 745 mmHg 84%
19:00 +28°C° 1 mm 2 m/s 745 mmHg 87%
20:00 +28°C° 0.1 mm 2 m/s 746 mmHg 88%
21:00 +27°C° 0.1 mm 2 m/s 746 mmHg 88%
22:00 +27°C° 0.1 mm 1 m/s 747 mmHg 89%
23:00 +27°C° 0.4 mm 1 m/s 747 mmHg 89%

15 August, Sâmbătă

Timp Temperatura Precipitaţii Vânt Presiune Umiditate
00:00 +26°C° 0.4 mm 1 m/s 746 mmHg 90%
01:00 +26°C° 0.4 mm 1 m/s 746 mmHg 90%
02:00 +26°C° 0.2 mm 1 m/s 746 mmHg 89%
03:00 +26°C° 0.2 mm 1 m/s 746 mmHg 89%
04:00 +26°C° 0.2 mm 2 m/s 745 mmHg 89%
05:00 +26°C° 0 mm 1 m/s 746 mmHg 87%
06:00 +27°C° 0 mm 1 m/s 746 mmHg 86%
07:00 +27°C° 0 mm 1 m/s 746 mmHg 85%
08:00 +29°C° 0 mm 1 m/s 746 mmHg 77%
09:00 +31°C° 0 mm 1 m/s 746 mmHg 69%
10:00 +30°C° 0 mm 0 m/s 746 mmHg 62%
11:00 +32°C° 0.4 mm 1 m/s 746 mmHg 64%
12:00 +32°C° 0.4 mm 2 m/s 745 mmHg 67%
13:00 +32°C° 0.4 mm 2 m/s 745 mmHg 70%
14:00 +31°C° 1 mm 2 m/s 744 mmHg 73%
15:00 +31°C° 1 mm 2 m/s 744 mmHg 77%
16:00 +30°C° 1 mm 2 m/s 744 mmHg 80%
17:00 +30°C° 0.6 mm 2 m/s 744 mmHg 83%
18:00 +29°C° 0.6 mm 2 m/s 745 mmHg 86%
19:00 +28°C° 0.6 mm 2 m/s 745 mmHg 88%
20:00 +28°C° 0.1 mm 2 m/s 746 mmHg 89%
21:00 +28°C° 0.1 mm 1 m/s 746 mmHg 89%
22:00 +27°C° 0.1 mm 1 m/s 747 mmHg 90%
23:00 +27°C° 0.4 mm 1 m/s 747 mmHg 90%

16 August, Duminică

Timp Temperatura Precipitaţii Vânt Presiune Umiditate
00:00 +27°C° 0.4 mm 1 m/s 746 mmHg 91%
01:00 +27°C° 0.4 mm 1 m/s 746 mmHg 91%
02:00 +26°C° 0.7 mm 2 m/s 746 mmHg 91%
03:00 +26°C° 0.7 mm 2 m/s 746 mmHg 91%
04:00 +26°C° 0.7 mm 2 m/s 746 mmHg 90%
05:00 +26°C° 0.8 mm 1 m/s 746 mmHg 89%
06:00 +27°C° 0.8 mm 1 m/s 746 mmHg 88%
07:00 +27°C° 0.8 mm 1 m/s 747 mmHg 87%
08:00 +29°C° 0.3 mm 1 m/s 747 mmHg 81%
09:00 +30°C° 0.3 mm 1 m/s 747 mmHg 74%
10:00 +32°C° 0.3 mm 1 m/s 747 mmHg 68%
11:00 +32°C° 0.6 mm 1 m/s 746 mmHg 69%
12:00 +32°C° 0.6 mm 1 m/s 746 mmHg 70%
13:00 +32°C° 0.6 mm 2 m/s 745 mmHg 71%
14:00 +32°C° 1.2 mm 2 m/s 745 mmHg 75%
15:00 +31°C° 1.2 mm 2 m/s 744 mmHg 78%
16:00 +31°C° 1.2 mm 2 m/s 744 mmHg 82%
17:00 +30°C° 0.6 mm 2 m/s 744 mmHg 84%
18:00 +29°C° 0.6 mm 2 m/s 745 mmHg 86%
19:00 +28°C° 0.6 mm 2 m/s 745 mmHg 88%
20:00 +28°C° 0.5 mm 2 m/s 746 mmHg 89%
21:00 +28°C° 0.5 mm 2 m/s 746 mmHg 90%
22:00 +27°C° 0.5 mm 2 m/s 747 mmHg 90%
23:00 +27°C° 0.5 mm 2 m/s 747 mmHg 90%
Arată mai mult